Location: Eisingen in Unterfranken
(49.7591°N, 9.8347°E)
Time: 09:29:09
(UTC+01:00)

BlueWalker 3 - Visible Passes

Search period start: 28 November 2022 00:00
Search period end: 08 December 2022 00:00
Orbit: 500 x 519 km, 53.2° (Epoch: 27 November)

Date Brightness Start Highest point End Pass type
(mag) Time Alt. Az. Time Alt. Az. Time Alt. Az.
28 Nov 2.0 18:12:36 10° WSW 18:16:31 72° NNW 18:17:47 40° NE visible
28 Nov 4.8 19:51:42 10° WNW 19:52:36 16° WNW 19:52:36 16° WNW visible
29 Nov 2.0 17:54:16 10° WSW 17:58:11 70° NNW 18:00:09 27° ENE visible
29 Nov 4.3 19:33:22 10° WNW 19:34:58 22° WNW 19:34:58 22° WNW visible
30 Nov 2.1 17:35:55 10° W 17:39:49 68° NNW 17:42:29 19° ENE visible
30 Nov 3.6 19:15:02 10° WNW 19:17:19 31° NW 19:17:19 31° NW visible
01 Dec 2.1 17:17:33 10° W 17:21:28 66° NNW 17:24:50 13° ENE visible
01 Dec 2.9 18:56:40 10° WNW 18:59:39 42° NW 18:59:39 42° NW visible
02 Dec 2.1 16:59:12 10° W 17:03:07 64° NNW 17:07:00 10° ENE visible
02 Dec 2.3 18:38:18 10° WNW 18:42:00 50° N 18:42:00 50° N visible
03 Dec 2.2 18:19:56 10° WNW 18:23:47 51° N 18:24:22 46° NE visible
03 Dec 5.1 19:58:43 10° WNW 19:59:12 13° WNW 19:59:12 13° WNW visible
04 Dec 2.2 18:01:34 10° WNW 18:05:24 52° N 18:06:46 34° ENE visible
04 Dec 4.5 19:40:20 10° WNW 19:41:36 20° WNW 19:41:36 20° WNW visible
05 Dec 2.2 17:43:10 10° WNW 17:47:02 52° N 17:49:12 23° ENE visible
05 Dec 3.8 19:21:57 10° WNW 19:24:02 30° WNW 19:24:02 30° WNW visible
06 Dec 2.2 17:24:47 10° WNW 17:28:38 53° N 17:31:42 15° E visible
06 Dec 2.8 19:03:33 10° WNW 19:06:33 48° W 19:06:33 48° W visible
07 Dec 2.2 17:06:23 10° WNW 17:10:15 54° N 17:14:05 10° E visible
07 Dec 2.2 18:45:09 10° WNW 18:49:01 64° SSW 18:49:09 63° SSW visible
